Year,Month,Day,Hour,Minute,Value (Times are PST for temperature in C)
2018,05,15,00,00,22.20
2018,05,15,00,01,22.10
2018,05,15,00,02,22.10
2018,05,15,00,03,22.10
2018,05,15,00,04,22.00
2018,05,15,00,05,22.00
2018,05,15,00,06,22.00
2018,05,15,00,07,22.00
2018,05,15,00,08,22.00
2018,05,15,00,09,22.00
2018,05,15,00,10,22.00
2018,05,15,00,11,22.00
2018,05,15,00,12,22.00
2018,05,15,00,13,22.00
2018,05,15,00,14,22.00
2018,05,15,00,15,22.00
2018,05,15,00,16,22.00
2018,05,15,00,17,21.90
2018,05,15,00,18,21.90
2018,05,15,00,19,21.90
2018,05,15,00,20,21.90
2018,05,15,00,21,21.90
2018,05,15,00,22,21.90
2018,05,15,00,23,21.90
2018,05,15,00,24,21.90
2018,05,15,00,25,21.90
2018,05,15,00,26,21.90
2018,05,15,00,27,21.90
2018,05,15,00,28,21.90
2018,05,15,00,29,21.90
2018,05,15,00,30,21.80
2018,05,15,00,31,21.80
2018,05,15,00,32,21.80
2018,05,15,00,33,21.80
2018,05,15,00,34,21.80
2018,05,15,00,35,21.80
2018,05,15,00,36,21.80
2018,05,15,00,37,21.80
2018,05,15,00,38,21.70
2018,05,15,00,39,21.70
2018,05,15,00,40,21.70
2018,05,15,00,41,21.70
2018,05,15,00,42,21.70
2018,05,15,00,43,21.60
2018,05,15,00,44,21.60
2018,05,15,00,45,21.60
2018,05,15,00,46,21.60
2018,05,15,00,47,21.50
2018,05,15,00,48,21.50
2018,05,15,00,49,21.40
2018,05,15,00,50,21.40
2018,05,15,00,51,21.40
2018,05,15,00,52,21.30
2018,05,15,00,53,21.30
2018,05,15,00,54,21.30
2018,05,15,00,55,21.30
2018,05,15,00,56,21.20
2018,05,15,00,57,21.20
2018,05,15,00,58,21.20
2018,05,15,00,59,21.10
2018,05,15,01,00,21.10
2018,05,15,01,01,21.00
2018,05,15,01,02,21.00
2018,05,15,01,03,20.90
2018,05,15,01,04,20.90
2018,05,15,01,05,20.80
2018,05,15,01,06,20.80
2018,05,15,01,07,20.70
2018,05,15,01,08,20.70
2018,05,15,01,09,20.60
2018,05,15,01,10,20.60
2018,05,15,01,11,20.50
2018,05,15,01,12,20.50
2018,05,15,01,13,20.40
2018,05,15,01,14,20.30
2018,05,15,01,15,20.30
2018,05,15,01,16,20.20
2018,05,15,01,17,20.20
2018,05,15,01,18,20.10
2018,05,15,01,19,20.10
2018,05,15,01,20,20.00
2018,05,15,01,21,20.00
2018,05,15,01,22,19.90
2018,05,15,01,23,19.90
2018,05,15,01,24,19.80
2018,05,15,01,25,19.80
2018,05,15,01,26,19.70
2018,05,15,01,27,19.70
2018,05,15,01,28,19.70
2018,05,15,01,29,19.60
2018,05,15,01,30,19.60
2018,05,15,01,31,19.60
2018,05,15,01,32,19.50
2018,05,15,01,33,19.50
2018,05,15,01,34,19.40
2018,05,15,01,35,19.40
2018,05,15,01,36,19.40
2018,05,15,01,37,19.40
2018,05,15,01,38,19.30
2018,05,15,01,39,19.30
2018,05,15,01,40,19.30
2018,05,15,01,41,19.30
2018,05,15,01,42,19.30
2018,05,15,01,43,19.30
2018,05,15,01,44,19.20
2018,05,15,01,45,19.20
2018,05,15,01,46,19.20
2018,05,15,01,47,19.20
2018,05,15,01,48,19.20
2018,05,15,01,49,19.20
2018,05,15,01,50,19.20
2018,05,15,01,51,19.20
2018,05,15,01,52,19.10
2018,05,15,01,53,19.10
2018,05,15,01,54,19.10
2018,05,15,01,55,19.10
2018,05,15,01,56,19.00
2018,05,15,01,57,19.00
2018,05,15,01,58,19.00
2018,05,15,01,59,18.90
2018,05,15,02,00,18.90
2018,05,15,02,01,18.90
2018,05,15,02,02,18.80
2018,05,15,02,03,18.80
2018,05,15,02,04,18.80
2018,05,15,02,05,18.70
2018,05,15,02,06,18.70
2018,05,15,02,07,18.70
2018,05,15,02,08,18.60
2018,05,15,02,09,18.60
2018,05,15,02,10,18.60
2018,05,15,02,11,18.60
2018,05,15,02,12,18.50
2018,05,15,02,13,18.50
2018,05,15,02,14,18.50
2018,05,15,02,15,18.40
2018,05,15,02,16,18.40
2018,05,15,02,17,18.40
2018,05,15,02,18,18.40
2018,05,15,02,19,18.40
2018,05,15,02,20,18.40
2018,05,15,02,21,18.40
2018,05,15,02,22,18.40
2018,05,15,02,23,18.40
2018,05,15,02,24,18.30
2018,05,15,02,25,18.30
2018,05,15,02,26,18.30
2018,05,15,02,27,18.30
2018,05,15,02,28,18.30
2018,05,15,02,29,18.30
2018,05,15,02,30,18.30
2018,05,15,02,31,18.30
2018,05,15,02,32,18.20
2018,05,15,02,33,18.20
2018,05,15,02,34,18.20
2018,05,15,02,35,18.20
2018,05,15,02,36,18.20
2018,05,15,02,37,18.20
2018,05,15,02,38,18.10
2018,05,15,02,39,18.10
2018,05,15,02,40,18.10
2018,05,15,02,41,18.10
2018,05,15,02,42,18.00
2018,05,15,02,43,18.00
2018,05,15,02,44,18.00
2018,05,15,02,45,18.00
2018,05,15,02,46,18.00
2018,05,15,02,47,18.00
2018,05,15,02,48,18.00
2018,05,15,02,49,18.00
2018,05,15,02,50,18.00
2018,05,15,02,51,18.00
2018,05,15,02,52,18.00
2018,05,15,02,53,18.00
2018,05,15,02,54,18.00
2018,05,15,02,55,18.00
2018,05,15,02,56,18.00
2018,05,15,02,57,18.00
2018,05,15,02,58,17.90
2018,05,15,02,59,17.90
2018,05,15,03,00,17.90
2018,05,15,03,01,17.90
2018,05,15,03,02,17.90
2018,05,15,03,03,17.90
2018,05,15,03,04,17.90
2018,05,15,03,05,17.90
2018,05,15,03,06,17.90
2018,05,15,03,07,17.90
2018,05,15,03,08,17.90
2018,05,15,03,09,17.90
2018,05,15,03,10,17.90
2018,05,15,03,11,17.90
2018,05,15,03,12,17.90
2018,05,15,03,13,17.90
2018,05,15,03,14,17.90
2018,05,15,03,15,17.90
2018,05,15,03,16,17.90
2018,05,15,03,17,17.90
2018,05,15,03,18,17.90
2018,05,15,03,19,17.90
2018,05,15,03,20,17.90
2018,05,15,03,21,17.90
2018,05,15,03,22,17.90
2018,05,15,03,23,17.90
2018,05,15,03,24,17.90
2018,05,15,03,25,17.90
2018,05,15,03,26,17.90
2018,05,15,03,27,17.90
2018,05,15,03,28,17.90
2018,05,15,03,29,17.90
2018,05,15,03,30,17.90
2018,05,15,03,31,17.90
2018,05,15,03,32,17.90
2018,05,15,03,33,17.90
2018,05,15,03,34,17.80
2018,05,15,03,35,17.80
2018,05,15,03,36,17.80
2018,05,15,03,37,17.80
2018,05,15,03,38,17.80
2018,05,15,03,39,17.80
2018,05,15,03,40,17.80
2018,05,15,03,41,17.80
2018,05,15,03,42,17.70
2018,05,15,03,43,17.70
2018,05,15,03,44,17.70
2018,05,15,03,45,17.70
2018,05,15,03,46,17.70
2018,05,15,03,47,17.60
2018,05,15,03,48,17.60
2018,05,15,03,49,17.60
2018,05,15,03,50,17.60
2018,05,15,03,51,17.50
2018,05,15,03,52,17.50
2018,05,15,03,53,17.40
2018,05,15,03,54,17.40
2018,05,15,03,55,17.40
2018,05,15,03,56,17.40
2018,05,15,03,57,17.30
2018,05,15,03,58,17.30
2018,05,15,03,59,17.30
2018,05,15,04,00,17.30
2018,05,15,04,01,17.20
2018,05,15,04,02,17.20
2018,05,15,04,03,17.10
2018,05,15,04,04,17.10
2018,05,15,04,05,17.00
2018,05,15,04,06,17.00
2018,05,15,04,07,16.90
2018,05,15,04,08,16.90
2018,05,15,04,09,16.90
2018,05,15,04,10,16.80
2018,05,15,04,11,16.80
2018,05,15,04,12,16.80
2018,05,15,04,13,16.80
2018,05,15,04,14,16.80
2018,05,15,04,15,16.80
2018,05,15,04,16,16.80
2018,05,15,04,17,16.80
2018,05,15,04,18,16.80
2018,05,15,04,19,16.80
2018,05,15,04,20,16.80
2018,05,15,04,21,16.80
2018,05,15,04,22,16.80
2018,05,15,04,23,16.80
2018,05,15,04,24,16.80
2018,05,15,04,25,16.80
2018,05,15,04,26,16.90
2018,05,15,04,27,16.90
2018,05,15,04,28,16.90
2018,05,15,04,29,16.90
2018,05,15,04,30,16.90
2018,05,15,04,31,16.90
2018,05,15,04,32,16.90
2018,05,15,04,33,16.80
2018,05,15,04,34,16.80
2018,05,15,04,35,16.70
2018,05,15,04,36,16.70
2018,05,15,04,37,16.60
2018,05,15,04,38,16.60
2018,05,15,04,39,16.50
2018,05,15,04,40,16.40
2018,05,15,04,41,16.40
2018,05,15,04,42,16.30
2018,05,15,04,43,16.30
2018,05,15,04,44,16.20
2018,05,15,04,45,16.20
2018,05,15,04,46,16.20
2018,05,15,04,47,16.20
2018,05,15,04,48,16.20
2018,05,15,04,49,16.20
2018,05,15,04,50,16.20
2018,05,15,04,51,16.10
2018,05,15,04,52,16.10
2018,05,15,04,53,16.10
2018,05,15,04,54,16.00
2018,05,15,04,55,16.00
2018,05,15,04,56,15.90
2018,05,15,04,57,15.90
2018,05,15,04,58,15.80
2018,05,15,04,59,15.80
2018,05,15,05,00,15.80
2018,05,15,05,01,15.70
2018,05,15,05,02,15.70
2018,05,15,05,03,15.70
2018,05,15,05,04,15.60
2018,05,15,05,05,15.60
2018,05,15,05,06,15.60
2018,05,15,05,07,15.60
2018,05,15,05,08,15.60
2018,05,15,05,09,15.60
2018,05,15,05,10,15.50
2018,05,15,05,11,15.50
2018,05,15,05,12,15.50
2018,05,15,05,13,15.50
2018,05,15,05,14,15.50
2018,05,15,05,15,15.40
2018,05,15,05,16,15.40
2018,05,15,05,17,15.40
2018,05,15,05,18,15.40
2018,05,15,05,19,15.40
2018,05,15,05,20,15.40
2018,05,15,05,21,15.40
2018,05,15,05,22,15.40
2018,05,15,05,23,15.30
2018,05,15,05,24,15.30
2018,05,15,05,25,15.30
2018,05,15,05,26,15.30
2018,05,15,05,27,15.30
2018,05,15,05,28,15.30
2018,05,15,05,29,15.30
2018,05,15,05,30,15.30
2018,05,15,05,31,15.30
2018,05,15,05,32,15.30
2018,05,15,05,33,15.30
2018,05,15,05,34,15.30
2018,05,15,05,35,15.30
2018,05,15,05,36,15.30
2018,05,15,05,37,15.30
2018,05,15,05,38,15.30
2018,05,15,05,39,15.30
2018,05,15,05,40,15.30
2018,05,15,05,41,15.30
2018,05,15,05,42,15.40
2018,05,15,05,43,15.40
2018,05,15,05,44,15.40
2018,05,15,05,45,15.40
2018,05,15,05,46,15.40
2018,05,15,05,47,15.40
2018,05,15,05,48,15.40
2018,05,15,05,49,15.40
2018,05,15,05,50,15.30
2018,05,15,05,51,15.30
2018,05,15,05,52,15.30
2018,05,15,05,53,15.30
2018,05,15,05,54,15.30
2018,05,15,05,55,15.30
2018,05,15,05,56,15.20
2018,05,15,05,57,15.20
2018,05,15,05,58,15.20
2018,05,15,05,59,15.20
2018,05,15,06,00,15.20
2018,05,15,06,01,15.30
2018,05,15,06,02,15.30
2018,05,15,06,03,15.30
2018,05,15,06,04,15.30
2018,05,15,06,05,15.40
2018,05,15,06,06,15.40
2018,05,15,06,07,15.40
2018,05,15,06,08,15.40
2018,05,15,06,09,15.50
2018,05,15,06,10,15.50
2018,05,15,06,11,15.50
2018,05,15,06,12,15.50
2018,05,15,06,13,15.50
2018,05,15,06,14,15.60
2018,05,15,06,15,15.60
2018,05,15,06,16,15.60
2018,05,15,06,17,15.70
2018,05,15,06,18,15.70
2018,05,15,06,19,15.80
2018,05,15,06,20,15.80
2018,05,15,06,21,15.90
2018,05,15,06,22,15.90
2018,05,15,06,23,15.90
2018,05,15,06,24,15.90
2018,05,15,06,25,15.90
2018,05,15,06,26,15.90
2018,05,15,06,27,15.90
2018,05,15,06,28,15.90
2018,05,15,06,29,15.90
2018,05,15,06,30,15.90
2018,05,15,06,31,15.90
2018,05,15,06,32,15.90
2018,05,15,06,33,15.90
2018,05,15,06,34,15.80
2018,05,15,06,35,15.80
2018,05,15,06,36,15.80
2018,05,15,06,37,15.80
2018,05,15,06,38,15.80
2018,05,15,06,39,15.80
2018,05,15,06,40,15.70
2018,05,15,06,41,15.70
2018,05,15,06,42,15.70
2018,05,15,06,43,15.70
2018,05,15,06,44,15.70
2018,05,15,06,45,15.70
2018,05,15,06,46,15.70
2018,05,15,06,47,15.70
2018,05,15,06,48,15.70
2018,05,15,06,49,15.70
2018,05,15,06,50,15.70
2018,05,15,06,51,15.60
2018,05,15,06,52,15.60
2018,05,15,06,53,15.60
2018,05,15,06,54,15.60
2018,05,15,06,55,15.60
2018,05,15,06,56,15.60
2018,05,15,06,57,15.60
2018,05,15,06,58,15.60
2018,05,15,06,59,15.60
2018,05,15,07,00,15.60
2018,05,15,07,01,15.60
2018,05,15,07,02,15.60
2018,05,15,07,03,15.60
2018,05,15,07,04,15.60
2018,05,15,07,05,15.60
2018,05,15,07,06,15.60
2018,05,15,07,07,15.60
2018,05,15,07,08,15.60
2018,05,15,07,09,15.60
2018,05,15,07,10,15.60
2018,05,15,07,11,15.60
2018,05,15,07,12,15.60
2018,05,15,07,13,15.70
2018,05,15,07,14,15.70
2018,05,15,07,15,15.70
2018,05,15,07,16,15.70
2018,05,15,07,17,15.70
2018,05,15,07,18,15.70
2018,05,15,07,19,15.70
2018,05,15,07,20,15.80
2018,05,15,07,21,15.80
2018,05,15,07,22,15.80
2018,05,15,07,23,15.90
2018,05,15,07,24,15.90
2018,05,15,07,25,15.90
2018,05,15,07,26,15.90
2018,05,15,07,27,15.90
2018,05,15,07,28,15.90
2018,05,15,07,29,15.90
2018,05,15,07,30,15.90
2018,05,15,07,31,15.90
2018,05,15,07,32,15.90
2018,05,15,07,33,15.90
2018,05,15,07,34,15.80
2018,05,15,07,35,15.80
2018,05,15,07,36,15.80
2018,05,15,07,37,15.80
2018,05,15,07,38,15.80
2018,05,15,07,39,15.80
2018,05,15,07,40,15.80
2018,05,15,07,41,15.80
2018,05,15,07,42,15.80
2018,05,15,07,43,15.80
2018,05,15,07,44,15.80
2018,05,15,07,45,15.80
2018,05,15,07,46,15.80
2018,05,15,07,47,15.80
2018,05,15,07,48,15.80
2018,05,15,07,49,15.80
2018,05,15,07,50,15.80
2018,05,15,07,51,15.80
2018,05,15,07,52,15.80
2018,05,15,07,53,15.80
2018,05,15,07,54,15.80
2018,05,15,07,55,15.80
2018,05,15,07,56,15.80
2018,05,15,07,57,15.80
2018,05,15,07,58,15.90
2018,05,15,07,59,15.90
2018,05,15,08,00,16.00
2018,05,15,08,01,16.00
2018,05,15,08,02,16.10
2018,05,15,08,03,16.10
2018,05,15,08,04,16.20
2018,05,15,08,05,16.20
2018,05,15,08,06,16.30
2018,05,15,08,07,16.30
2018,05,15,08,08,16.30
2018,05,15,08,09,16.30
2018,05,15,08,10,16.30
2018,05,15,08,11,16.30
2018,05,15,08,12,16.40
2018,05,15,08,13,16.40
2018,05,15,08,14,16.40
2018,05,15,08,15,16.40
2018,05,15,08,16,16.40
2018,05,15,08,17,16.40
2018,05,15,08,18,16.40
2018,05,15,08,19,16.40
2018,05,15,08,20,16.50
2018,05,15,08,21,16.50
2018,05,15,08,22,16.50
2018,05,15,08,23,16.60
2018,05,15,08,24,16.60
2018,05,15,08,25,16.60
2018,05,15,08,26,16.60
2018,05,15,08,27,16.60
2018,05,15,08,28,16.70
2018,05,15,08,29,16.70
2018,05,15,08,30,16.70
2018,05,15,08,31,16.80
2018,05,15,08,32,16.80
2018,05,15,08,33,16.80
2018,05,15,08,34,16.80
2018,05,15,08,35,16.90
2018,05,15,08,36,16.90
2018,05,15,08,37,16.90
2018,05,15,08,38,16.90
2018,05,15,08,39,16.90
2018,05,15,08,40,16.90
2018,05,15,08,41,16.90
2018,05,15,08,42,17.00
2018,05,15,08,43,17.00
2018,05,15,08,44,17.00
2018,05,15,08,45,17.00
2018,05,15,08,46,17.00
2018,05,15,08,47,17.00
2018,05,15,08,48,17.10
2018,05,15,08,49,17.10
2018,05,15,08,50,17.10
2018,05,15,08,51,17.10
2018,05,15,08,52,17.10
2018,05,15,08,53,17.10
2018,05,15,08,54,17.10
2018,05,15,08,55,17.10
2018,05,15,08,56,17.10
2018,05,15,08,57,17.10
2018,05,15,08,58,17.10
2018,05,15,08,59,17.10
2018,05,15,09,00,17.10
2018,05,15,09,01,17.10
2018,05,15,09,02,17.20
2018,05,15,09,03,17.20
2018,05,15,09,04,17.20
2018,05,15,09,05,17.20
2018,05,15,09,06,17.30
2018,05,15,09,07,17.30
2018,05,15,09,08,17.30
2018,05,15,09,09,17.30
2018,05,15,09,10,17.40
2018,05,15,09,11,17.40
2018,05,15,09,12,17.40
2018,05,15,09,13,17.40
2018,05,15,09,14,17.50
2018,05,15,09,15,17.50
2018,05,15,09,16,17.60
2018,05,15,09,17,17.60
2018,05,15,09,18,17.70
2018,05,15,09,19,17.80
2018,05,15,09,20,17.90
2018,05,15,09,21,17.90
2018,05,15,09,22,18.00
2018,05,15,09,23,18.10
2018,05,15,09,24,18.10
2018,05,15,09,25,18.20
2018,05,15,09,26,18.30
2018,05,15,09,27,18.40
2018,05,15,09,28,18.40
2018,05,15,09,29,18.50
2018,05,15,09,30,18.60
2018,05,15,09,31,18.60
2018,05,15,09,32,18.70
2018,05,15,09,33,18.70
2018,05,15,09,34,18.70
2018,05,15,09,35,18.70
2018,05,15,09,36,18.70
2018,05,15,09,37,18.80
2018,05,15,09,38,18.80
2018,05,15,09,39,18.90
2018,05,15,09,40,19.00
2018,05,15,09,41,19.10
2018,05,15,09,42,19.10
2018,05,15,09,43,19.20
2018,05,15,09,44,19.20
2018,05,15,09,45,19.20
2018,05,15,09,46,19.10
2018,05,15,09,47,19.10
2018,05,15,09,48,19.00
2018,05,15,09,49,19.00
2018,05,15,09,50,18.90
2018,05,15,09,51,18.90
2018,05,15,09,52,18.90
2018,05,15,09,53,18.90
2018,05,15,09,54,18.80
2018,05,15,09,55,18.80
2018,05,15,09,56,18.90
2018,05,15,09,57,18.90
2018,05,15,09,58,18.90
2018,05,15,09,59,18.90
2018,05,15,10,00,19.00
2018,05,15,10,01,19.00
2018,05,15,10,02,19.00
2018,05,15,10,03,19.00
2018,05,15,10,04,19.00
2018,05,15,10,05,19.10
2018,05,15,10,06,19.10
2018,05,15,10,07,19.20
2018,05,15,10,08,19.20
2018,05,15,10,09,19.30
2018,05,15,10,10,19.40
2018,05,15,10,11,19.50
2018,05,15,10,12,19.60
2018,05,15,10,13,19.70
2018,05,15,10,14,19.80
2018,05,15,10,15,19.90
2018,05,15,10,16,19.90
2018,05,15,10,17,20.00
2018,05,15,10,18,20.10
2018,05,15,10,19,20.10
2018,05,15,10,20,20.00
2018,05,15,10,21,20.00
2018,05,15,10,22,19.90
2018,05,15,10,23,19.90
2018,05,15,10,24,19.90
2018,05,15,10,25,19.90
2018,05,15,10,26,19.90
2018,05,15,10,27,20.00
2018,05,15,10,28,20.00
2018,05,15,10,29,20.00
2018,05,15,10,30,20.00
2018,05,15,10,31,20.00
2018,05,15,10,32,20.10
2018,05,15,10,33,20.10
2018,05,15,10,34,20.20
2018,05,15,10,35,20.30
2018,05,15,10,36,20.40
2018,05,15,10,37,20.50
2018,05,15,10,38,20.60
2018,05,15,10,39,20.60
2018,05,15,10,40,20.70
2018,05,15,10,41,20.70
2018,05,15,10,42,20.70
2018,05,15,10,43,20.70
2018,05,15,10,44,20.80
2018,05,15,10,45,20.80
2018,05,15,10,46,20.80
2018,05,15,10,47,20.90
2018,05,15,10,48,20.90
2018,05,15,10,49,21.00
2018,05,15,10,50,21.10
2018,05,15,10,51,21.10
2018,05,15,10,52,21.20
2018,05,15,10,53,21.30
2018,05,15,10,54,21.30
2018,05,15,10,55,21.30
2018,05,15,10,56,21.30
2018,05,15,10,57,21.30
2018,05,15,10,58,21.40
2018,05,15,10,59,21.40
2018,05,15,11,00,21.40
2018,05,15,11,01,21.40
2018,05,15,11,02,21.50
2018,05,15,11,03,21.60
2018,05,15,11,04,21.70
2018,05,15,11,05,21.80
2018,05,15,11,06,21.90
2018,05,15,11,07,22.00
2018,05,15,11,08,22.10
2018,05,15,11,09,22.20
2018,05,15,11,10,22.10
2018,05,15,11,11,21.90
2018,05,15,11,12,21.70
2018,05,15,11,13,21.70
2018,05,15,11,14,21.60
2018,05,15,11,15,21.60
2018,05,15,11,16,21.60
2018,05,15,11,17,21.70
2018,05,15,11,18,21.70
2018,05,15,11,19,21.70
2018,05,15,11,20,21.70
2018,05,15,11,21,21.70
2018,05,15,11,22,21.60
2018,05,15,11,23,21.60
2018,05,15,11,24,21.60
2018,05,15,11,25,21.60
2018,05,15,11,26,21.50
2018,05,15,11,27,21.50
2018,05,15,11,28,21.40
2018,05,15,11,29,21.40
2018,05,15,11,30,21.40
2018,05,15,11,31,21.50
2018,05,15,11,32,21.50
2018,05,15,11,33,21.60
2018,05,15,11,34,21.60
2018,05,15,11,35,21.70
2018,05,15,11,36,21.70
2018,05,15,11,37,21.80
2018,05,15,11,38,21.90
2018,05,15,11,39,22.00
2018,05,15,11,40,22.00
2018,05,15,11,41,22.00
2018,05,15,11,42,22.00
2018,05,15,11,43,22.00
2018,05,15,11,44,22.00
2018,05,15,11,45,21.90
2018,05,15,11,46,21.90
2018,05,15,11,47,21.80
2018,05,15,11,48,21.80
2018,05,15,11,49,21.80
2018,05,15,11,50,21.80
2018,05,15,11,51,21.80
2018,05,15,11,52,21.80
2018,05,15,11,53,21.80
2018,05,15,11,54,21.80
2018,05,15,11,55,21.70
2018,05,15,11,56,21.70
2018,05,15,11,57,21.70
2018,05,15,11,58,21.70
2018,05,15,11,59,21.70
2018,05,15,12,00,21.70
2018,05,15,12,01,21.70
2018,05,15,12,02,21.70
2018,05,15,12,03,21.80
2018,05,15,12,04,21.80
2018,05,15,12,05,21.80
2018,05,15,12,06,21.80
2018,05,15,12,07,21.80
2018,05,15,12,08,21.80
2018,05,15,12,09,21.70
2018,05,15,12,10,21.70
2018,05,15,12,11,21.60
2018,05,15,12,12,21.60
2018,05,15,12,13,21.70
2018,05,15,12,14,21.70
2018,05,15,12,15,21.70
2018,05,15,12,16,21.80
2018,05,15,12,17,21.80
2018,05,15,12,18,21.90
2018,05,15,12,19,21.90
2018,05,15,12,20,21.90
2018,05,15,12,21,21.90
2018,05,15,12,22,21.90
2018,05,15,12,23,21.90
2018,05,15,12,24,21.90
2018,05,15,12,25,21.90
2018,05,15,12,26,21.80
2018,05,15,12,27,21.80
2018,05,15,12,28,21.70
2018,05,15,12,29,21.60
2018,05,15,12,30,21.60
2018,05,15,12,31,21.60
2018,05,15,12,32,21.60
2018,05,15,12,33,21.70
2018,05,15,12,34,21.70
2018,05,15,12,35,21.70
2018,05,15,12,36,21.80
2018,05,15,12,37,21.80
2018,05,15,12,38,21.80
2018,05,15,12,39,21.80
2018,05,15,12,40,21.70
2018,05,15,12,41,21.60
2018,05,15,12,42,21.60
2018,05,15,12,43,21.50
2018,05,15,12,44,21.50
2018,05,15,12,45,21.50
2018,05,15,12,46,21.40
2018,05,15,12,47,21.40
2018,05,15,12,48,21.40
2018,05,15,12,49,21.40
2018,05,15,12,50,21.40
2018,05,15,12,51,21.40
2018,05,15,12,52,21.40
2018,05,15,12,53,21.40
2018,05,15,12,54,21.50
2018,05,15,12,55,21.50
2018,05,15,12,56,21.60
2018,05,15,12,57,21.70
2018,05,15,12,58,21.70
2018,05,15,12,59,21.80
2018,05,15,13,00,21.80
2018,05,15,13,01,21.80
2018,05,15,13,02,21.90
2018,05,15,13,03,21.90
2018,05,15,13,04,22.00
2018,05,15,13,05,22.10
2018,05,15,13,06,22.20
2018,05,15,13,07,22.30
2018,05,15,13,08,22.30
2018,05,15,13,09,22.30
2018,05,15,13,10,22.20
2018,05,15,13,11,22.10
2018,05,15,13,12,22.10
2018,05,15,13,13,22.10
2018,05,15,13,14,22.00
2018,05,15,13,15,21.90
2018,05,15,13,16,21.90
2018,05,15,13,17,21.90
2018,05,15,13,18,21.90
2018,05,15,13,19,21.90
2018,05,15,13,20,21.90
2018,05,15,13,21,21.90
2018,05,15,13,22,22.00
2018,05,15,13,23,22.00
2018,05,15,13,24,22.10
2018,05,15,13,25,22.10
2018,05,15,13,26,22.20
2018,05,15,13,27,22.30
2018,05,15,13,28,22.30
2018,05,15,13,29,22.40
2018,05,15,13,30,22.40
2018,05,15,13,31,22.40
2018,05,15,13,32,22.40
2018,05,15,13,33,22.40
2018,05,15,13,34,22.50
2018,05,15,13,35,22.60
2018,05,15,13,36,22.60
2018,05,15,13,37,22.60
2018,05,15,13,38,22.70
2018,05,15,13,39,22.70
2018,05,15,13,40,22.70
2018,05,15,13,41,22.70
2018,05,15,13,42,22.80
2018,05,15,13,43,22.80
2018,05,15,13,44,22.80
2018,05,15,13,45,22.80
2018,05,15,13,46,22.70
2018,05,15,13,47,22.70
2018,05,15,13,48,22.70
2018,05,15,13,49,22.70
2018,05,15,13,50,22.70
2018,05,15,13,51,22.80
2018,05,15,13,52,22.80
2018,05,15,13,53,22.80
2018,05,15,13,54,22.90
2018,05,15,13,55,22.90
2018,05,15,13,56,22.90
2018,05,15,13,57,23.00
2018,05,15,13,58,23.10
2018,05,15,13,59,23.10
2018,05,15,14,00,23.10
2018,05,15,14,01,23.10
2018,05,15,14,02,23.20
2018,05,15,14,03,23.30
2018,05,15,14,04,23.30
2018,05,15,14,05,23.30
2018,05,15,14,06,23.30
2018,05,15,14,07,23.20
2018,05,15,14,08,23.10
2018,05,15,14,09,23.00
2018,05,15,14,10,22.90
2018,05,15,14,11,22.90
2018,05,15,14,12,22.90
2018,05,15,14,13,22.90
2018,05,15,14,14,22.90
2018,05,15,14,15,22.90
2018,05,15,14,16,22.80
2018,05,15,14,17,22.80
2018,05,15,14,18,22.80
2018,05,15,14,19,22.80
2018,05,15,14,20,22.80
2018,05,15,14,21,22.90
2018,05,15,14,22,22.90
2018,05,15,14,23,22.90
2018,05,15,14,24,23.00
2018,05,15,14,25,23.00
2018,05,15,14,26,23.10
2018,05,15,14,27,23.10
2018,05,15,14,28,23.20
2018,05,15,14,29,23.20
2018,05,15,14,30,23.30
2018,05,15,14,31,23.30
2018,05,15,14,32,23.40
2018,05,15,14,33,23.40
2018,05,15,14,34,23.40
2018,05,15,14,35,23.40
2018,05,15,14,36,23.50
2018,05,15,14,37,23.60
2018,05,15,14,38,23.60
2018,05,15,14,39,23.60
2018,05,15,14,40,23.60
2018,05,15,14,41,23.70
2018,05,15,14,42,23.70
2018,05,15,14,43,23.70
2018,05,15,14,44,23.70
2018,05,15,14,45,23.70
2018,05,15,14,46,23.70
2018,05,15,14,47,23.70
2018,05,15,14,48,23.70
2018,05,15,14,49,23.60
2018,05,15,14,50,23.50
2018,05,15,14,51,23.50
2018,05,15,14,52,23.40
2018,05,15,14,53,23.30
2018,05,15,14,54,23.30
2018,05,15,14,55,23.30
2018,05,15,14,56,23.30
2018,05,15,14,57,23.30
2018,05,15,14,58,23.40
2018,05,15,14,59,23.40
2018,05,15,15,00,23.50
2018,05,15,15,01,23.60
2018,05,15,15,02,23.60
2018,05,15,15,03,23.70
2018,05,15,15,04,23.70
2018,05,15,15,05,23.70
2018,05,15,15,06,23.70
2018,05,15,15,07,23.70
2018,05,15,15,08,23.80
2018,05,15,15,09,23.80
2018,05,15,15,10,23.90
2018,05,15,15,11,24.00
2018,05,15,15,12,24.10
2018,05,15,15,13,24.20
2018,05,15,15,14,24.30
2018,05,15,15,15,24.30
2018,05,15,15,16,24.40
2018,05,15,15,17,24.40
2018,05,15,15,18,24.50
2018,05,15,15,19,24.50
2018,05,15,15,20,24.50
2018,05,15,15,21,24.50
2018,05,15,15,22,24.40
2018,05,15,15,23,24.40
2018,05,15,15,24,24.40
2018,05,15,15,25,24.40
2018,05,15,15,26,24.40
2018,05,15,15,27,24.40
2018,05,15,15,28,24.40
2018,05,15,15,29,24.40
2018,05,15,15,30,24.40
2018,05,15,15,31,24.40
2018,05,15,15,32,24.40
2018,05,15,15,33,24.40
2018,05,15,15,34,24.40
2018,05,15,15,35,24.40
2018,05,15,15,36,24.40
2018,05,15,15,37,24.40
2018,05,15,15,38,24.40
2018,05,15,15,39,24.30
2018,05,15,15,40,24.20
2018,05,15,15,41,24.20
2018,05,15,15,42,24.20
2018,05,15,15,43,24.20
2018,05,15,15,44,24.20
2018,05,15,15,45,24.20
2018,05,15,15,46,24.30
2018,05,15,15,47,24.30
2018,05,15,15,48,24.40
2018,05,15,15,49,24.50
2018,05,15,15,50,24.50
2018,05,15,15,51,24.60
2018,05,15,15,52,24.70
2018,05,15,15,53,24.70
2018,05,15,15,54,24.70
2018,05,15,15,55,24.80
2018,05,15,15,56,24.80
2018,05,15,15,57,24.90
2018,05,15,15,58,25.00
2018,05,15,15,59,25.00
2018,05,15,16,00,25.10
2018,05,15,16,01,25.20
2018,05,15,16,02,25.20
2018,05,15,16,03,25.30
2018,05,15,16,04,25.30
2018,05,15,16,05,25.30
2018,05,15,16,06,25.30
2018,05,15,16,07,25.10
2018,05,15,16,08,25.10
2018,05,15,16,09,25.00
2018,05,15,16,10,25.00
2018,05,15,16,11,25.00
2018,05,15,16,12,25.00
2018,05,15,16,13,24.90
2018,05,15,16,14,24.90
2018,05,15,16,15,24.90
2018,05,15,16,16,25.00
2018,05,15,16,17,25.10
2018,05,15,16,18,25.10
2018,05,15,16,19,25.10
2018,05,15,16,20,25.10
2018,05,15,16,21,25.10
2018,05,15,16,22,25.10
2018,05,15,16,23,25.20
2018,05,15,16,24,25.20
2018,05,15,16,25,25.20
2018,05,15,16,26,25.20
2018,05,15,16,27,25.20
2018,05,15,16,28,25.20
2018,05,15,16,29,25.10
2018,05,15,16,30,25.00
2018,05,15,16,31,24.90
2018,05,15,16,32,24.80
2018,05,15,16,33,24.80
2018,05,15,16,34,24.80
2018,05,15,16,35,24.80
2018,05,15,16,36,24.80
2018,05,15,16,37,24.80
2018,05,15,16,38,24.80
2018,05,15,16,39,24.80
2018,05,15,16,40,24.80
2018,05,15,16,41,24.80
2018,05,15,16,42,24.80
2018,05,15,16,43,24.90
2018,05,15,16,44,24.90
2018,05,15,16,45,25.00
2018,05,15,16,46,25.10
2018,05,15,16,47,25.20
2018,05,15,16,48,25.30
2018,05,15,16,49,25.40
2018,05,15,16,50,25.40
2018,05,15,16,51,25.40
2018,05,15,16,52,25.50
2018,05,15,16,53,25.50
2018,05,15,16,54,25.50
2018,05,15,16,55,25.40
2018,05,15,16,56,25.30
2018,05,15,16,57,25.30
2018,05,15,16,58,25.30
2018,05,15,16,59,25.30
2018,05,15,17,00,25.20
2018,05,15,17,01,25.20
2018,05,15,17,02,25.20
2018,05,15,17,03,25.20
2018,05,15,17,04,25.10
2018,05,15,17,05,25.10
2018,05,15,17,06,25.10
2018,05,15,17,07,25.10
2018,05,15,17,08,25.10
2018,05,15,17,09,25.10
2018,05,15,17,10,25.10
2018,05,15,17,11,25.00
2018,05,15,17,12,25.00
2018,05,15,17,13,25.10
2018,05,15,17,14,25.10
2018,05,15,17,15,25.10
2018,05,15,17,16,25.20
2018,05,15,17,17,25.20
2018,05,15,17,18,25.20
2018,05,15,17,19,25.30